Weather in Pishchane

Ukraine / Poltava Region     49°07′15″N   33°23′58″E
temp.,
°C
wind,
m/s
gust,
m/s
humid.,
%
clouds,
%
prec.,
mm/h
press.,
hPa
HPBL,
m
18 may, tue
tue1800:00+16sw3588100 0.2 1005125
03:00+14ssw2589100 0.2 1004121
06:00+14s3691100 0.3 1004229
09:00+17ssw4678100 1.8 1005614
12:00+21sse56546 0.1 10031456
15:00+19s6967100 1.9 10021149
18:00+18s697184 0.6 10021146
21:00+15s4107965 0.7 1002638
19 may, wed
wed1900:00+14sse388896 0.0 1002314
03:00+13sse38902 0.0 1002284
06:00+12sse37906 0.0 1003240
09:00+16sse46665 0.1 1003833
12:00+20sse56488 0.3 10031772
15:00+19s555430 0.8 10031529
18:00+17ssw436631 0.3 1004834
21:00+14ssw238017 0.3 1004148
20 may, thu
thu2000:00+13sw37875 0.0 1005183
03:00+13w6884100 0.0 1006656
06:00+13w5984100 0.0 1007640
09:00+14wsw588097 0.1 1008809
12:00+19w7105394 0.1 10091830
15:00+19w6951100 0.1 10091995
18:00+16nw4567100 0.2 1011590
21:00+14n1172100 0.3 101214
21 may, fri
fri2100:00+12nne3492100 2.4 1013253
03:00+11ene369299 3.7 1014307
06:00+10ene41089100 0.1 1014291
09:00+13ene51077100 0.3 1014447
12:00+16ene6967100 0.1 1013821
15:00+19ene6859100 0.1 10131466
18:00+19ene3670100 0.1 1012502
21:00+16nne51075100 0.1 1013473
22 may, sat
sat2200:00+14nne4118259 0.1 1013422
03:00+13n498981 0.1 1013313
06:00+13n5990100 0.0 1011290
09:00+15n578561 0.4 1012368
12:00+21n566539 0.0 1012963
15:00+24n565821 0.0 10121387
18:00+24n56644 0.0 10121091
21:00+18nnw49850 0.0 1012333